Flag for Laos Weather past 2 weeks in Vientiane, Laos

Now
68 °F

Fog.


Feels Like: 68 °F
Forecast: 63 / 83 °F
Wind: 2 mph from Northeast

Location: Vientiane Airport

Current Time: Jan 31, 2015 at 8:29:28 AM

Latest Report: Jan 31, 2015 at 8:00 AM


Visibility: 2 mi

Pressure: 30.07 "Hg

Humidity: 78%

Dew point: 61 °F

Location of VientianeLocation

Historic Weather in Vientiane — Graph

°F

Vientiane temperature yesterday

Maximum temperature yesterday: 88 °F (at 4:00 PM)
Minimum temperature yesterday: 64 °F (at 6:00 AM)
Average temperature yesterday: 76 °F

Past Weeks' High & Low Weather Summary

 TemperatureHumidityPressure
High91 °F (Jan 29, 4:00 PM)94% (Jan 21, 7:00 AM)30.15 "Hg (Jan 21, 7:00 AM)
Low57 °F (Jan 16, 7:00 AM)37% (Jan 17, 2:00 PM)29.80 "Hg (Jan 27, 4:00 PM)
Average73 °F65%29.99 "Hg
* Reported Jan 16 7:00 AM — Jan 31 7:00 AM, Vientiane, Weather by CustomWeather, © 2014

Note: Actual official high and low records may vary slightly from our data, if they occured in-between our weather recording intervals... More about our weather records

Advertising

Vientiane weather history for previous 24 hours

 ConditionsComfort  
Time TempWeatherWind HumidityBarometerVisibility
7:00 AM
Jan 31
66 °FFog.2 mph83%30.01 "Hg1 mi
6:30 AM68 °FFog.2 mph83%29.98 "Hg2 mi
6:00 AM68 °FFog.2 mph83%29.98 "Hg2 mi
11:00 PM
Jan 30
72 °FFog.2 mph88%29.98 "Hg1 mi
10:30 PM73 °FFog.2 mph83%29.98 "Hg1 mi
10:00 PM73 °FFog.2 mph83%29.98 "Hg1 mi
9:30 PM75 °FFog.2 mph83%29.95 "Hg2 mi
9:00 PM75 °FFog.2 mph83%29.95 "Hg2 mi
8:30 PM77 °FFog.2 mph79%29.95 "Hg2 mi
8:00 PM77 °FFog.2 mph79%29.95 "Hg2 mi
7:30 PM79 °FFog.2 mph74%29.92 "Hg2 mi
7:00 PM79 °FFog.2 mph74%29.92 "Hg2 mi
6:30 PM82 °FFog.2 mph58%29.89 "Hg2 mi
6:00 PM82 °FFog.2 mph58%29.89 "Hg3 mi
5:30 PM86 °FClear.2 mph52%29.89 "Hg4 mi
4:00 PM88 °FClear.2 mph49%29.89 "Hg5 mi
3:30 PM86 °FClear.5 mph52%29.92 "Hg5 mi
3:00 PM86 °FClear.2 mph52%29.92 "Hg5 mi
2:30 PM86 °FClear.2 mph49%29.95 "Hg5 mi
2:00 PM86 °FClear.2 mph49%29.95 "Hg5 mi
1:00 PM84 °FClear.5 mph51%29.95 "Hg5 mi
12:00 PM81 °FClear.7 mph54%29.98 "Hg4 mi
11:30 AM77 °FFog.7 mph61%30.01 "Hg3 mi
11:00 AM77 °FFog.5 mph61%30.01 "Hg3 mi
10:30 AM73 °FFog.9 mph69%30.04 "Hg3 mi
10:00 AM73 °FFog.5 mph69%30.04 "Hg3 mi
9:30 AM70 °FFog.5 mph73%29.98 "Hg3 mi
9:00 AM70 °FFog.2 mph73%29.98 "Hg3 mi
8:30 AM66 °FFog.2 mph83%29.98 "Hg3 mi
8:00 AM66 °FFog.2 mph83%29.98 "Hg3 mi
Weather by CustomWeather, © 2014

See weather overviewHow to use our weather pages